IRIDIUM 44

Satellite information

Favourite Embed

Satellite Type and Status

PAYLOADIN ORBIT

Key statistics

Satellite IRIDIUM 44 at a glance.

Uptime

10232

Days in orbit

Revolutions

≈ 14.4

Per day

Orbit

LEO

Low Earth Orbit

Inclination

86.4

Latest

Satellite identification and parameters

Extended collection of information and parameters for IRIDIUM 44.

Object identification

Identified? True

Debris? False

Object name: IRIDIUM 44

International designator: 1997-077B

Object number (NORAD): 25078

Object ID (CCSDS): 25078

Country: UNITED STATES OF AMERICA (US)

Current information (Y/N): Y

RCS size: LARGE

Orbital parameters

Period: 99.97 minutes

Inclination: 86.3965 deg

SMA: 7135.211 km

Apoapsis: 759.33 km

Periapsis: 754.821 km

RAAN: 146.2761 deg

Eccentricy: 0.000316

Argument of periapsis: 125.3974 deg

Mean anomaly: 234.752 deg

Mean motion: 14.40431374 rev/day

Mean motion (dot): 0.00000681 rev/day2

B* drag term: 0.00020835 1/REarth

Two-line elements (TLE)

Creation date: Dec. 12, 2025, 7:26 a.m.

Reference frame: TEME

Reference center: EARTH

Epoch: Dec. 11, 2025, 11:31 p.m. UTC

TLE line 0: 0 IRIDIUM 44

TLE line 1: 1 25078U 97077B 25345.98048426 .00000681 00000-0 20835-3 0 9998

TLE line 2: 2 25078 86.3965 146.2761 0003160 125.3974 234.7520 14.40431374469293

Live tracking on map

Real-time ground track for satellite IRIDIUM 44.

In-orbit conjunctions

A list of the most updated potential collisions computed for object IRIDIUM 44.

Target Orbit TCA Probability of collision Miss distance Type
DMSP 5D-2 F13 DEB SSO 2025-11-09 13:31:57 0.0001108841 192.0 (m) DEBRIS
CZ-6A DEB SSO 2025-11-04 06:47:06 0.000155323 326.0 (m) DEBRIS
FENGYUN 1C DEB SSO 2025-09-09 08:31:37 0.0002939854 235.0 (m) DEBRIS
SL-8 DEB LEO 2025-08-16 09:03:41 0.0008809691 761.0 (m) DEBRIS
FENGYUN 1C DEB SSO 2025-03-15 05:05:31 0.0002798018 77.0 (m) DEBRIS

Associated space launch

Iridium provides global mobile telecommunications services using a constellation of 66 low earth orbit satellites in a 86.4° inclined orbit. Although 77 satellites were originally envisioned for the system and spawned the name based on the 77th element in the periodic table, the system has been scaled back. Motorola's Satellite Communications Group designed and manufactured the Iridium satellites with Lockheed Martin providing the LM-700A spacecraft buses.

IRIDIUM 44 was lifted into orbit during the mission ‘Long March 2C/SD | Iridium 42 & 44’, on board a Long March 2C/SD space rocket.

The launch took place on Dec. 8, 1997, 7:16 a.m. from Launch Complex 7.

For more information about the launch, click the button.

Launch to space Long March 2C/SD | Iridium 42 & 44
Long March 2C/SD | Iridium 42 & 44

Agency: N/A

Status: Launch Successful

Launch date: Dec. 8, 1997, 7:16 a.m. UTC

Rocket: Long March 2C/SD

Launch pad: Launch Complex 7

Location: Taiyuan Satellite Launch Center, People's Republic of China

...

Latest news about this satellite

There are no fresh news available about this satellite. Check back as we update our databases every day.


Newsletter sign-up

Weekly statistics, charts and insights to help you stay on top of the space industry.